weather.gov     
National Weather Service

Regional Weather Roundup
NWS Homepage
This page is being discontinued on March 12, 2014.
The same data is available at this site. Please update your bookmarks.
Thank you, and we apologize for the inconvenience.
Please send an email to SR-SRH.Webmaster@noaa.gov with any concerns.


Current Version
Previous Version:    01  02  03  04  05  06  07  08  09  10  11  12  13  14  15  16  17  18  19  20  21  22  23  24  25  26  27  28  29  30  
   31  32  33  34  35  36  37  38  39  40  41  42  43  44  45  46  47  48  49  50  51  52  53  
[Printable]
647
ASUS42 KMHX 311722
RWRMHX
WEATHER ROUNDUP FOR EASTERN NORTH CAROLINA
NATIONAL WEATHER SERVICE NEWPORT/MOREHEAD CITY NC
100 PM EDT FRI OCT 31 2014

NOTE: "FAIR" INDICATES FEW OR NO CLOUDS BELOW 12,000 FEET
WITH NO SIGNIFICANT WEATHER AND/OR OBSTRUCTIONS TO VISIBILITY

NCZ015>017-031-032-045>047-102-103-311800-
NORTH COAST

CITY           SKY/WX    TMP DP  RH WIND       PRES   REMARKS
EDENTON        MOSUNNY   62  41  45 N10G18    29.84F
ELIZABETH CITY MOSUNNY   65  46  50 N14       29.84F
KITTY HAWK     CLOUDY    61  48  62 N10G16    29.80F
MANTEO         CLOUDY    61  48  62 N14G20    29.81F

$$

NCZ045>047-081-094-103-104-311800-
CENTRAL COAST

CITY           SKY/WX    TMP DP  RH WIND       PRES   REMARKS
FRISCO         CLOUDY    63  52  67 NE14G23   29.79F
SWANQUARTER      N/A     64 N/A N/A N6G20     29.77F

$$

NCZ095-097-098-100-101-311800-
SOUTHERN COAST

CITY           SKY/WX    TMP DP  RH WIND       PRES   REMARKS
BEAUFORT       PTSUNNY   64  50  60 N17G23    29.82F
CEDAR ISLAND     N/A     63 N/A N/A N14G21    29.85S
JACKSONVILLE   SUNNY     65  43  44 N9G22     29.83F
PINEY ISLAND   PTSUNNY   64  48  56 N14G22    29.81F
WILMINGTON     SUNNY     65  44  46 NE14G21   29.84F


$$

NCZ011>013-027>030-043-044-078>080-089-090>093-098-311800-
COASTAL PLAIN

CITY           SKY/WX    TMP DP  RH WIND       PRES   REMARKS
AHOSKIE        NOT AVBL
CLINTON        SUNNY     64  45  50 N6        29.86F
ELIZABETHTOWN  SUNNY     65  43  45 E3        29.85F
GOLDSBORO      SUNNY     64  47  55 N13       29.85F
GREENVILLE     SUNNY     63  43  48 NE13      29.88F
HAVELOCK       MOSUNNY   66  45  46 NE15      29.83F
KENANSVILLE    SUNNY     63  42  45 N8        29.86F
KINSTON        SUNNY     64  41  42 NE14      29.86F
NEW BERN       SUNNY     66  46  48 N14       29.85F
RICHLANDS      SUNNY     64  41  42 N13G18    29.84F
ROCKY MOUNT    SUNNY     63  41  44 N10       29.88F
WASHINGTON     SUNNY     63  42  44 N13       29.84F
WHITEVILLE     SUNNY     63  44  50 NE7       29.84F

$$

AMZ130-135-150-152-154-156-158-170-250-252-270-ANZ085-086-088-633-658-670-311800-
MARINE OBSERVATIONS

STATION/POSITION TIME  TEMP    WIND        PRES    WAVE   SWELL
                       AIR SEA DIR/SP/G            HT/PER HT/PER
                 (UTC) (F)     (DEG/KT/KT) (MB)    (FT/S) (FT/S)
CHESAPEAKE LIGHT 1700   58      30/ 19/ 21 1010.9
64 E VA BEACH    1700   61 66   30/ 19/ 21 1008.8    4/ 4   2/ 8
DUCK             1700   60 65   10/ 13/ 20 1008.9
2 E DUCK         NOT AVBL
10 NE DUCK       1600      67                N/A     4/ 5
OREGON INLET     1700   61 65   10/ 12/ 17 1008.8
13E OREGON INLT  1700      68                N/A     6/ 5
HATTERAS CG      1700   62 64   10/ 20/ 22 1009.1
DIAMOND BUOY     1700   65     360/ 21/ 27 1007.6    7/ 7   2/10
17 S OCRACOKE    NOT AVBL
CAPE LOOKOUT     1700   62      10/ 14/ 18 1009.1
BEAUFORT LAB     1700   62 66   20/ 11/ 14 1008.9
30 SE NEW RIVER  1700   63 74   20/ 17/ 21 1008.8    5/ 6
5 SE WRIGHTSVLE  1700   60 71   30/ 16/ 17   N/A
225 S CAPE HAT   NOT AVBL
41 SE CHARLESTON 1700   67 76   10/ 14/ 19 1009.4    6/ 7   3/ 7

$$




U.S. Dept. of Commerce
NOAA National Weather Service
1325 East West Highway
Silver Spring, MD 20910
E-mail: w-nws.webmaster@noaa.gov
Page last modified: May 16, 2007
NATIONAL WEATHER SERVICE: for Safety, for Work, for Fun - FOR LIFE